Powrót do katalogu

STARLINK-5204

AktywnyŁącznośćVLEO
NORAD 54101·PAYLOAD·🇺🇸 United States

Wystrzelony Oct 20, 2022 z Cape Canaveral Space Force Station

Loading…

Następne Przeloty (najbliższe 24 godziny)

TLE

ŚwieżeSource: CelesTrak SupGP

Epoka: Sep 14, 2026, 21:10 UTC

1 54101C 22136BC  26257.88243056 -.00018629  00000+0 -59895-3 0  2576
2 54101  53.1589 176.9931 0001381  94.0545 140.6595 15.31717380    17

Śledź STARLINK-5204 w czasie rzeczywistym z AllMySat

Download on the App Store